Lapse_Rate
4.9 5.5 6.1 6.1 6.6 6.9 7.4 6.2 5.9 5.8 6.0 6.1 6.3 6.2 6.1 6.2 6.2 6.2 6.2 6.1 6.6 6.8 6.6 6.3 6.5 7.0 7.0 7.0 6.8 6.5 6.2 6.6 7.0 6.6 6.6 6.4 6.7 6.5 6.1 6.2 6.5 6.7 6.6
5.2 6.0 6.1 6.4 6.4 6.4 6.5 5.9 5.7 5.7 5.9 5.9 6.3 6.6 6.4 6.3 6.4 6.4 6.6 6.6 6.6 6.7 7.2 8.0 6.7 6.8 6.8 6.8 6.6 6.3 6.1 5.9 6.4 6.9 6.7 6.2 6.4 6.0 6.2 6.2 6.8 6.8 6.7
5.1 5.7 6.3 6.0 6.3 6.6 6.4 6.0 5.6 5.6 5.7 5.8 6.0 6.3 6.4 6.5 6.8 6.7 6.7 6.6 6.5 6.4 6.9 7.7 6.9 6.4 6.3 6.2 6.1 6.0 5.4 5.2 5.4 5.4 5.7 7.1 7.0 6.1 6.5 6.7 6.2 6.3 6.4
5.0 5.7 6.1 5.5 5.3 5.3 5.5 5.7 5.7 5.5 5.4 5.4 5.5 5.9 6.3 6.4 6.4 6.7 6.8 6.6 6.5 6.4 7.0 7.7 7.4 6.1 5.7 5.5 5.5 5.4 5.1 4.6 4.5 4.9 6.4 7.0 7.3 6.4 6.7 6.5 6.1 6.0 5.9
4.9 5.3 5.6 5.3 5.4 5.2 5.1 5.1 5.2 5.2 5.2 5.2 5.3 5.5 5.9 6.2 6.5 6.6 6.7 6.3 6.2 6.5 7.3 6.3 5.9 5.9 5.6 5.4 5.8 5.5 5.0 4.6 4.7 5.6 6.5 6.6 7.0 7.1 7.5 6.9 5.9 5.7 5.9
4.7 4.8 5.0 5.3 5.4 5.2 4.9 5.1 5.2 5.3 5.3 5.2 5.1 5.2 5.4 5.8 6.1 6.1 6.1 5.9 6.1 6.8 6.9 5.8 5.6 5.6 5.6 5.4 5.6 5.7 5.3 4.6 4.6 5.8 6.1 6.1 7.0 7.1 7.0 6.0 6.0 6.1 5.8
4.9 4.8 5.3 5.4 5.6 5.4 5.0 5.1 5.3 5.5 5.4 5.3 5.2 5.3 5.5 5.8 6.0 6.4 6.6 6.6 6.5 6.6 6.6 6.2 5.8 5.9 5.7 5.7 5.5 5.2 4.9 4.4 6.0 6.1 6.5 6.7 7.0 6.9 7.0 6.4 6.2 6.3 6.4
4.9 4.4 5.0 5.4 5.9 6.0 6.1 5.8 5.5 5.7 5.7 5.6 5.5 5.8 6.0 6.0 6.0 6.0 5.4 5.8 6.3 6.5 6.7 6.5 6.3 6.1 6.1 6.2 6.2 5.4 4.6 4.8 5.8 6.3 6.8 6.6 6.8 7.0 7.2 7.0 6.5 7.0 7.9
4.6 4.8 4.9 5.2 5.8 6.2 6.7 6.7 6.2 5.9 5.8 5.7 5.8 6.2 6.2 6.2 5.9 5.4 5.4 5.5 5.8 6.3 6.4 6.5 6.3 6.1 5.9 6.1 5.9 5.6 4.9 5.3 6.6 6.1 5.8 5.6 6.0 7.1 7.3 7.1 6.7 7.3 7.3
4.5 4.9 5.1 5.4 5.4 6.4 6.6 6.8 6.8 6.3 6.0 5.8 5.8 5.6 6.0 6.1 6.2 5.5 5.5 5.5 5.4 5.3 5.7 5.8 5.8 5.7 5.6 5.5 5.3 5.6 5.2 5.5 6.8 6.5 6.4 5.6 6.1 6.9 7.2 7.2 6.9 7.5 7.9
-0.4 0.1 0.1 1.4 4.3 7.3 6.0 7.2 6.3 6.2 6.3 6.3 6.2 5.7 5.6 6.2 6.1 5.8 5.9 5.6 5.3 5.4 5.5 5.7 5.7 5.4 5.3 5.6 5.7 5.5 5.5 7.0 6.9 6.9 6.7 6.3 6.5 7.1 7.0 7.2 7.3 7.3 7.5
-1.9 -1.5 -1.7 -1.6 -0.3 2.3 5.7 6.6 6.9 6.5 6.6 6.4 5.5 5.7 5.5 5.7 5.8 5.8 5.8 5.5 5.5 5.7 5.7 5.8 5.5 5.0 5.4 6.0 6.1 5.5 7.1 6.8 6.9 6.5 6.6 6.0 6.3 7.6 7.1 7.1 7.2 7.1 6.6
0.9 -0.2 -1.5 -2.0 -1.8 -0.9 1.0 4.6 7.1 7.6 6.5 5.8 5.6 5.4 5.3 4.4 4.5 5.5 5.8 5.7 5.9 5.8 6.7 6.1 5.8 5.8 6.2 5.7 5.7 6.5 6.9 6.4 7.0 7.2 7.1 6.1 5.8 7.5 7.3 6.8 7.0 6.9 6.7
0.8 0.5 -0.2 -1.5 -1.8 -2.4 -2.0 1.3 4.5 6.8 7.0 6.8 6.0 6.2 5.4 4.5 4.5 4.8 5.5 5.9 6.2 6.0 6.2 6.0 5.8 5.7 6.1 5.8 6.2 6.6 6.7 6.0 6.2 6.8 7.1 6.1 6.0 7.0 6.9 6.8 6.9 6.9 7.0
2.4 1.4 0.6 -0.0 -1.0 -2.1 -2.3 -1.8 0.3 4.2 6.6 6.2 6.1 7.1 6.7 4.8 4.5 4.2 4.3 5.4 6.0 5.8 5.8 5.7 5.6 5.8 6.3 6.2 6.2 6.7 6.0 5.9 6.7 6.5 6.9 6.6 5.1 6.2 6.8 6.7 7.0 7.0 7.0
3.7 3.2 3.4 2.0 0.6 -0.6 -1.1 -1.3 -1.0 0.5 3.5 5.3 5.9 7.1 6.3 6.3 4.5 4.2 4.1 4.5 4.8 5.4 5.4 5.2 5.5 5.8 6.4 6.4 6.7 6.3 6.1 6.2 7.1 6.7 6.6 5.4 5.3 5.7 6.6 6.6 7.2 7.2 7.3
4.0 3.3 2.8 3.7 2.9 0.9 0.5 -0.5 -1.2 -1.2 0.4 3.7 5.0 4.8 6.2 6.9 5.2 4.7 4.0 4.0 4.1 3.7 5.1 5.3 5.5 5.3 6.2 6.5 7.0 6.3 6.5 6.6 7.0 7.1 6.4 5.7 5.3 5.1 6.0 6.4 6.5 6.7 7.3
4.6 3.4 2.8 2.8 2.4 2.4 1.6 0.7 -0.2 -0.7 0.4 1.6 4.7 5.1 5.5 5.9 6.1 5.6 4.5 4.1 4.2 3.5 4.0 4.8 5.6 5.6 6.1 6.4 6.8 6.6 6.5 7.1 7.2 7.1 6.8 6.2 5.9 5.5 6.5 6.2 6.5 7.4 8.0
4.7 4.1 3.4 2.9 2.3 2.1 2.1 1.5 1.0 0.5 1.0 0.1 1.5 4.7 5.8 5.6 6.4 5.3 5.2 4.8 4.2 3.6 4.3 4.4 5.0 5.8 5.4 6.1 6.7 6.8 6.6 7.2 7.4 6.8 6.8 6.6 6.5 6.3 6.5 7.0 7.4 7.6 7.9
5.2 4.7 4.2 3.9 3.4 2.7 1.8 1.4 1.8 2.0 1.0 0.8 2.2 2.1 3.7 5.6 5.5 5.6 4.7 4.7 3.6 4.0 4.3 4.2 4.8 5.3 6.0 6.2 6.8 6.5 5.9 6.7 6.9 7.2 7.5 6.5 6.3 6.0 6.5 6.8 7.2 7.9 8.1
5.8 5.1 5.2 4.5 4.4 4.2 2.7 1.2 0.4 0.5 0.8 2.1 2.4 3.4 2.5 3.5 6.0 6.3 4.9 4.7 3.6 3.8 4.0 4.3 4.7 4.6 4.9 6.0 5.3 5.3 4.5 4.4 6.2 6.5 6.5 5.5 5.0 5.8 6.8 6.9 6.8 7.8 7.6
7.0 6.2 5.7 5.5 5.3 5.2 5.4 4.4 3.9 2.3 2.9 3.2 3.3 1.6 2.5 1.8 3.0 6.0 6.7 5.3 3.6 3.3 3.9 4.0 4.6 4.9 4.9 5.7 6.5 6.2 6.3 5.5 5.0 5.3 6.0 5.4 5.5 5.4 6.7 6.9 7.6 7.0 6.9
6.9 7.0 6.9 5.8 6.0 5.9 5.4 5.5 4.5 3.7 2.9 2.2 1.9 2.5 1.8 2.0 2.6 4.1 6.2 6.8 4.8 4.1 3.8 3.6 4.3 5.3 4.6 5.4 6.8 7.1 6.2 7.2 6.1 4.3 5.2 6.0 5.6 5.7 5.4 6.9 6.9 6.8 6.2
6.8 6.7 6.8 7.0 6.2 6.3 5.9 5.2 5.8 6.2 5.0 3.3 2.4 2.5 2.7 1.9 2.5 3.7 5.8 6.4 6.2 5.3 4.8 4.0 4.2 5.0 5.4 5.2 6.0 7.5 5.8 5.6 7.2 5.7 4.3 4.6 5.2 4.9 4.7 5.2 6.3 6.8 6.5
6.7 7.0 7.1 6.9 7.2 6.2 5.9 5.8 5.7 5.8 6.3 5.7 3.7 2.6 3.4 3.2 2.3 2.6 4.0 6.4 6.1 5.8 5.5 5.3 4.3 4.9 5.8 5.8 5.6 5.7 5.1 4.6 4.9 5.4 5.8 5.3 3.6 4.4 5.2 5.8 5.7 6.7 6.3
6.6 6.6 6.6 7.1 7.1 7.5 6.4 6.0 5.9 5.6 5.8 5.8 4.8 2.9 2.8 2.5 2.7 2.6 2.7 4.7 6.5 6.1 5.6 4.8 4.8 4.8 5.0 6.3 5.4 5.8 6.0 5.2 5.0 5.2 5.0 6.4 5.5 3.9 4.2 4.8 5.0 4.9 5.6
Wind_Speed
2 12 17 15 14 15 16 15 13 13 15 16 18 19 19 18 18 18 18 17 15 14 17 15 15 16 16 16 15 15 14 14 16 17 18 18 16 16 16 16 18 19 19
4 13 16 16 15 14 14 13 13 12 14 16 16 17 17 18 17 17 17 16 15 15 15 16 16 15 15 15 14 14 14 13 14 18 16 17 16 17 17 17 19 20 20
9 13 17 16 16 13 12 11 12 12 14 15 16 17 18 18 16 16 15 14 15 16 15 16 16 15 15 14 13 13 14 12 15 17 16 14 15 16 17 17 18 18 17
10 12 14 16 18 16 15 13 12 13 13 14 15 15 17 17 16 15 15 14 14 15 14 15 15 16 16 15 15 14 14 13 13 15 13 13 14 17 18 17 17 17 17
11 13 13 15 17 17 17 16 14 14 14 14 15 15 15 15 15 15 15 14 14 15 16 16 15 15 15 16 17 16 15 13 13 11 11 11 14 18 18 18 16 15 14
11 13 14 16 16 17 17 17 17 17 17 16 16 16 16 16 16 16 15 15 15 14 17 19 15 15 15 15 16 17 16 14 12 9 10 10 13 18 18 19 15 15 15
7 9 11 14 16 15 18 18 17 17 18 18 18 18 18 18 17 16 14 15 15 17 20 19 16 14 18 17 15 14 14 14 10 9 9 12 13 20 20 19 17 15 17
6 4 8 15 16 18 18 18 18 18 18 17 18 18 19 17 16 13 11 11 15 19 19 20 17 15 15 16 14 12 13 12 10 8 9 10 14 21 22 18 16 15 17
6 5 7 10 13 18 20 20 20 19 18 17 15 18 17 17 16 15 14 12 17 18 19 18 17 16 15 15 13 12 14 12 10 9 9 12 10 17 20 18 17 17 17
19 18 17 11 9 13 16 21 22 23 21 20 18 18 19 18 18 17 17 15 18 20 19 17 16 15 14 15 14 12 15 13 8 7 8 9 15 16 19 18 18 17 16
20 21 26 26 27 15 13 18 21 24 24 24 22 20 20 15 16 17 17 17 17 17 17 16 16 15 14 14 14 13 16 9 7 6 5 9 8 14 20 19 18 17 14
24 22 19 25 25 26 21 16 18 16 17 17 16 17 15 15 15 16 17 21 18 17 16 15 16 16 15 12 13 15 11 9 7 6 5 9 8 12 19 19 18 17 15
20 17 21 22 27 25 21 21 13 17 16 14 17 16 17 13 12 14 13 16 15 17 14 15 16 13 13 13 12 13 12 10 8 6 5 9 13 14 19 21 21 18 19
22 22 21 26 23 25 24 17 17 10 14 13 17 19 14 8 9 10 10 13 15 15 14 15 14 13 13 13 13 13 11 10 8 5 4 3 12 19 19 24 23 22 20
22 22 22 23 21 24 20 20 17 12 10 13 15 21 18 8 7 9 9 13 13 14 14 12 13 14 13 13 13 12 11 11 10 7 5 5 5 14 22 27 25 23 19
22 22 21 21 24 27 17 20 14 17 18 12 12 17 20 16 8 7 5 6 8 10 12 12 12 11 9 13 10 12 10 11 10 9 8 7 6 7 22 25 25 23 20
19 21 21 20 27 23 20 21 18 19 21 12 9 9 17 18 13 8 5 4 8 10 14 12 12 13 8 9 10 11 9 10 9 9 9 10 10 7 10 19 19 18 16
21 22 22 20 20 22 19 20 18 19 19 15 14 10 16 16 18 12 8 9 11 12 11 8 8 9 10 9 8 7 6 9 9 9 8 10 10 11 14 12 15 15 13
21 22 22 21 22 21 22 20 20 21 15 18 18 14 10 15 17 13 10 12 15 10 9 9 7 10 9 9 8 7 6 5 7 9 9 10 10 11 12 13 14 14 13
19 20 21 18 21 20 17 16 13 11 13 18 14 14 19 11 14 12 9 10 15 10 9 9 10 9 9 10 8 6 4 5 5 6 10 12 12 11 11 8 8 10 15
19 20 21 21 21 16 15 15 14 14 12 10 13 19 20 15 12 12 9 11 10 10 12 14 8 11 5 10 6 3 2 2 6 6 9 10 11 15 11 9 8 11 12
18 19 20 20 20 17 13 13 11 12 9 11 11 18 19 21 18 9 11 10 11 9 12 11 12 6 4 10 8 8 5 3 2 6 7 6 6 8 10 11 10 9 10
19 18 18 19 19 17 19 11 13 10 9 8 12 11 13 22 19 16 12 12 11 11 10 12 13 14 7 8 12 5 4 6 4 3 9 8 8 6 7 11 10 10 10
18 16 17 16 18 17 19 16 18 10 13 12 10 11 12 20 18 17 13 12 13 11 12 12 11 13 12 11 10 8 2 5 6 4 4 6 7 8 7 6 11 12 11
16 16 15 17 16 16 18 18 13 16 11 11 11 15 14 12 16 16 15 12 13 11 14 14 14 14 12 11 12 11 3 3 3 3 4 7 5 7 7 7 10 11 13
15 15 15 17 17 17 16 17 17 17 18 14 14 11 10 10 9 13 13 14 12 13 14 13 15 17 14 13 12 11 11 6 5 4 3 7 10 3 6 6 7 9 11
Wind_Direction
238 176 163 153 153 153 154 153 154 152 151 149 152 153 150 146 143 142 141 138 135 131 134 133 130 134 130 127 125 124 123 122 126 122 119 121 118 112 103 110 108 113 108
191 173 160 156 150 152 157 161 156 149 147 148 153 161 159 152 148 146 146 142 144 144 142 137 136 135 132 128 128 129 127 116 117 123 122 118 120 115 113 110 107 106 101
168 168 164 155 151 158 160 161 161 158 151 152 154 161 164 159 160 155 154 153 156 154 152 148 143 138 133 131 130 131 127 123 119 118 123 128 127 124 116 109 103 105 103
163 168 170 162 155 164 160 164 167 164 160 159 157 161 160 161 161 160 159 162 163 161 153 148 142 140 140 136 133 135 137 133 121 127 137 138 135 134 128 117 113 110 107
164 171 173 168 165 167 161 165 170 168 165 164 167 165 164 163 163 165 166 167 169 170 155 142 143 146 149 148 142 141 142 141 139 143 143 146 151 145 140 128 114 109 107
175 177 181 178 178 173 167 171 174 173 171 171 172 170 169 169 172 172 172 173 181 167 150 142 145 149 147 145 146 145 146 145 150 160 161 163 159 157 135 119 120 112 113
187 191 195 193 191 186 176 177 181 180 179 179 177 177 175 174 176 178 174 185 185 170 163 150 149 146 140 138 139 141 140 144 148 164 172 172 175 147 136 127 124 121 120
196 225 213 211 208 205 200 188 188 190 187 189 184 183 178 176 174 172 171 187 192 179 168 151 152 150 147 143 144 139 141 136 132 130 153 163 168 151 138 134 125 133 127
322 263 229 232 224 221 216 209 196 194 195 196 196 186 187 179 174 166 163 153 165 165 163 157 153 155 159 154 153 150 154 150 142 130 134 125 181 155 140 138 131 130 130
4 355 339 289 243 235 231 221 209 201 199 199 200 197 192 190 173 167 164 154 146 151 157 157 160 165 168 166 158 159 160 151 148 146 158 179 188 163 147 143 137 135 132
4 6 359 358 345 289 245 235 221 209 205 206 204 203 197 190 183 180 178 171 163 158 159 161 163 167 168 163 170 164 161 164 162 163 167 184 205 164 152 147 141 140 146
360 358 358 353 348 340 312 247 231 215 212 209 200 197 195 196 189 187 187 180 176 167 163 163 166 163 165 177 173 166 171 166 172 177 190 198 209 185 156 152 144 140 142
358 359 358 353 350 350 340 327 249 228 212 209 203 197 193 183 187 189 190 191 181 177 174 170 169 171 172 168 171 175 171 170 176 178 191 215 207 202 170 153 147 145 143
3 0 358 356 354 351 344 335 328 265 223 219 212 208 190 182 180 185 188 192 191 184 180 178 180 175 172 170 172 175 177 169 162 161 133 144 221 216 175 161 155 152 149
4 358 358 355 356 351 347 341 334 325 273 222 215 215 203 185 190 177 178 185 193 187 186 180 178 177 175 172 175 186 176 157 164 156 145 103 34 213 178 166 160 158 159
360 358 354 356 357 351 349 344 334 329 323 280 237 214 205 200 181 184 180 175 183 195 192 178 182 178 179 176 177 187 181 164 168 160 155 121 74 156 168 167 166 166 162
0 354 356 354 354 353 347 344 340 328 324 310 272 227 229 215 176 175 172 161 187 188 190 186 189 175 177 178 181 182 183 172 168 167 157 152 143 128 155 166 170 164 155
0 359 355 354 355 351 347 342 338 333 326 313 300 255 227 217 189 182 193 214 198 184 189 188 194 179 180 179 179 188 197 175 172 181 177 159 167 165 175 167 158 160 163
359 356 357 355 356 351 347 344 339 337 335 336 329 314 264 231 202 184 184 207 205 202 188 188 190 191 183 184 181 182 198 194 185 182 193 177 175 180 176 186 194 197 192
2 360 354 359 355 351 351 345 340 338 335 327 328 329 322 263 226 182 189 197 190 189 189 184 184 192 195 187 180 182 188 216 199 207 199 190 184 187 179 175 193 206 207
0 358 358 351 357 355 354 349 345 337 327 331 325 338 333 313 254 213 201 191 185 192 197 186 179 178 174 181 149 148 173 226 197 211 216 188 178 192 166 184 195 202 212
352 354 351 354 349 354 352 344 338 328 323 319 332 331 330 336 317 255 202 199 186 191 192 189 180 177 173 179 182 175 184 209 192 214 210 196 191 174 183 200 201 211 210
351 349 348 345 348 345 350 344 342 334 330 329 338 327 326 322 317 306 253 201 195 195 196 190 185 184 173 189 194 174 171 210 175 183 221 203 202 200 195 195 202 206 211
343 339 342 338 345 347 344 345 347 341 334 328 319 312 318 319 316 319 280 233 196 202 200 193 194 191 180 185 199 203 212 140 190 179 210 213 210 206 194 194 204 200 210
337 336 337 336 340 342 345 343 339 340 327 323 321 322 315 320 318 314 314 252 221 205 207 201 194 200 195 183 196 190 172 175 156 143 183 199 215 217 211 202 201 211 203
332 335 334 340 337 336 341 338 338 333 331 329 329 326 321 316 319 315 315 305 231 216 207 200 200 199 197 198 192 196 198 183 180 161 141 191 207 193 217 210 211 216 214